GFSMA_850_thetae_000.txt.gz
Theta_e
348 348 346 347 346 346 348 348 348 347 347 345 344 344 343 344 345 345 346 344 339 340 338 331 324 324 323 334 329 331 328 327 327 327 328 329 330 332 334 335 335 332 331
348 347 347 347 347 346 345 345 346 347 347 346 345 345 344 344 344 345 344 345 342 339 339 337 323 326 326 325 329 338 329 329 329 328 329 330 330 330 329 329 330 329 329
348 347 344 347 345 344 340 344 346 347 346 346 346 346 345 345 344 345 345 344 345 345 340 341 340 335 328 330 326 327 328 337 339 340 337 332 330 329 329 330 330 329 329
344 343 342 343 345 345 345 345 346 345 343 345 346 345 345 344 345 345 345 344 344 344 346 342 341 341 337 327 328 330 330 335 330 327 328 328 330 334 331 328 328 328 329
343 344 345 344 342 342 342 342 345 346 345 345 346 345 345 344 344 343 344 344 345 345 344 344 343 341 340 330 326 328 327 327 328 327 328 327 327 326 326 326 326 326 326
345 345 345 345 344 344 344 344 342 346 346 346 346 344 343 343 343 343 343 344 345 344 344 344 346 344 342 338 338 337 328 328 329 332 334 332 330 330 330 332 334 334 333
346 345 345 344 344 345 347 347 346 344 344 345 346 345 344 344 344 343 343 343 343 344 344 344 344 345 346 346 341 338 335 335 339 338 338 341 340 338 338 337 337 337 337
343 340 340 343 344 343 343 343 343 344 346 345 344 345 342 342 342 344 344 342 343 343 343 344 345 346 345 345 347 340 338 338 338 339 338 340 340 340 339 338 338 338 338
337 335 338 340 341 340 341 343 342 342 344 344 344 344 341 341 340 341 344 343 343 343 343 343 344 345 346 345 345 346 339 336 334 335 339 340 339 338 337 338 339 339 339
332 333 336 339 339 339 339 339 340 341 342 342 344 342 342 341 341 341 341 343 344 343 343 343 343 344 346 346 346 343 344 338 336 333 334 339 339 337 335 334 335 338 338
330 333 336 338 337 339 339 337 336 338 340 342 342 341 342 342 342 342 341 341 343 343 342 343 343 342 343 345 346 346 341 334 329 329 332 333 335 337 339 339 336 338 338
336 337 334 332 334 335 336 336 336 335 336 337 339 340 341 341 341 342 342 341 340 341 343 341 342 343 343 343 344 344 345 342 337 330 331 335 337 339 340 340 341 340 341
333 332 324 328 330 329 329 333 334 334 334 335 336 336 337 339 339 339 340 341 342 341 341 342 342 343 343 343 343 343 338 337 337 338 337 337 337 337 339 341 343 343 343
332 327 330 330 331 330 331 332 332 334 335 334 334 334 335 336 338 340 339 339 343 342 342 342 343 343 343 344 343 343 342 336 337 337 338 338 338 338 339 341 343 344 344
331 330 326 329 330 332 332 333 333 333 333 332 332 333 333 332 334 336 337 339 341 342 342 341 342 342 344 345 345 344 344 344 338 338 338 338 339 338 338 340 343 344 343
327 324 328 332 331 332 331 330 331 331 332 331 332 333 332 334 335 333 334 336 336 341 341 340 339 340 344 344 346 346 346 345 337 338 338 337 337 338 340 340 341 342 341
327 327 328 326 331 332 331 330 330 329 330 330 330 330 330 330 332 334 333 333 337 337 339 338 337 338 340 345 345 347 346 347 346 339 338 338 338 337 338 340 340 341 342
329 324 325 330 332 332 332 331 331 330 329 329 328 328 329 331 330 333 332 333 335 335 337 338 337 338 339 341 345 344 345 346 347 345 345 339 339 338 339 340 339 338 337
329 331 332 331 328 331 331 331 331 329 328 327 321 323 324 328 330 332 335 333 335 335 335 338 338 338 339 341 343 342 345 346 347 346 347 341 338 338 337 337 337 337 336
331 331 332 331 331 332 331 331 330 328 324 325 322 322 324 327 329 332 334 337 334 334 336 336 338 338 338 340 344 343 345 345 346 346 346 345 342 339 337 335 336 336 336
330 331 330 330 330 330 330 328 326 327 321 322 323 319 324 324 330 332 334 335 334 335 333 337 337 337 338 339 341 343 343 345 345 345 345 345 345 343 336 335 334 334 335
329 330 329 329 330 330 329 324 325 327 321 320 321 322 322 322 324 326 329 331 333 336 336 335 334 336 337 338 340 342 344 343 344 346 344 344 344 343 343 343 342 335 335
330 329 328 328 329 329 326 324 325 326 322 319 319 321 321 321 320 324 326 327 333 333 336 335 334 335 337 338 338 340 340 344 343 342 345 344 344 343 344 343 339 336 336
329 328 328 328 328 326 322 319 321 325 323 321 319 319 321 320 319 320 325 326 328 333 333 336 335 335 335 339 338 339 339 339 343 343 345 345 343 343 346 344 344 337 336
327 326 327 328 327 327 323 318 321 326 326 323 321 320 319 320 317 320 322 325 326 330 334 334 334 335 334 337 336 336 339 342 341 343 344 345 343 343 345 345 345 341 337
326 326 326 327 327 326 325 319 322 325 323 323 320 320 319 320 315 318 323 324 324 330 331 336 334 334 335 335 335 335 339 339 342 342 341 342 343 344 346 344 343 337 338

GFSMA_850_thetae_003.txt.gz
Theta_e
347 346 349 346 347 344 344 346 346 345 346 346 346 345 344 344 343 343 345 347 343 340 340 337 333 328 325 325 327 332 332 328 333 326 327 335 335 331 333 335 335 334 332
348 346 346 348 347 346 350 347 347 348 347 346 345 345 345 344 344 345 344 345 344 342 339 336 330 324 325 323 333 328 331 329 329 332 328 329 330 330 330 329 333 336 329
348 345 345 346 349 348 344 345 347 348 347 347 345 345 344 347 345 345 344 345 347 346 342 339 339 332 326 328 325 326 338 332 330 331 333 333 331 329 328 328 329 329 329
345 344 343 343 342 342 348 347 347 348 348 348 346 345 343 346 345 347 345 346 346 347 347 344 342 341 341 332 328 327 327 327 332 334 336 336 333 328 328 328 328 328 328
347 344 343 343 343 343 345 346 346 344 347 347 346 347 346 345 344 344 346 346 346 346 347 348 344 342 341 341 333 326 328 328 330 330 327 327 327 327 327 326 326 326 326
348 348 348 349 348 348 348 348 347 347 344 345 347 345 345 345 345 344 344 344 345 346 347 345 346 344 342 341 338 327 325 326 326 326 327 328 328 326 327 327 329 331 332
347 346 346 346 344 342 341 341 343 346 345 345 345 345 346 346 345 344 344 344 343 344 345 346 346 347 347 347 343 337 336 338 326 326 326 330 332 331 331 332 334 335 336
345 346 344 343 341 341 339 341 341 342 343 344 344 344 345 345 345 345 344 344 344 344 344 345 345 345 345 348 347 344 343 340 332 331 333 333 337 340 338 336 336 337 338
342 342 342 341 339 339 339 341 340 342 341 342 343 344 344 343 341 342 344 345 344 344 344 344 344 346 346 347 347 347 346 341 338 337 337 336 336 339 340 339 338 337 337
340 340 340 341 341 340 338 338 339 339 340 341 341 343 342 343 346 344 342 344 345 345 344 344 344 344 345 347 347 346 347 344 339 338 336 336 338 340 340 338 337 335 336
339 339 340 340 339 341 339 338 338 337 337 338 338 339 342 342 341 344 344 343 345 344 345 344 344 345 344 345 347 346 344 343 341 341 336 334 334 336 340 339 336 335 334
336 337 338 332 335 337 338 337 337 336 335 335 336 336 338 340 340 342 342 342 342 343 343 344 343 343 344 344 344 345 347 345 343 337 334 332 332 332 334 335 335 336 337
334 335 333 336 335 335 335 335 336 335 335 335 335 335 335 335 337 339 340 340 341 338 340 343 343 343 344 344 344 344 343 344 346 344 340 336 329 329 331 334 336 338 338
333 334 335 335 335 335 335 335 336 336 334 335 334 335 333 332 332 333 337 338 341 339 337 339 342 343 340 344 342 342 343 343 342 340 338 338 337 334 334 335 336 337 339
334 333 334 334 334 334 334 333 334 334 333 330 329 330 332 333 334 334 334 334 340 342 340 338 337 342 342 343 343 343 343 344 344 342 337 336 336 338 338 338 337 337 338
335 335 334 333 334 334 333 334 333 332 332 332 332 330 329 331 331 332 332 334 335 337 340 338 338 338 343 344 344 341 344 343 344 343 340 338 337 337 337 337 337 336 338
335 335 334 333 334 335 334 334 332 333 332 331 330 329 327 328 329 331 328 330 335 335 339 335 335 333 341 340 340 344 346 347 345 345 343 337 337 337 337 337 338 338 339
334 334 333 333 333 334 333 334 333 333 332 330 330 329 327 327 326 326 329 330 331 334 336 335 334 335 339 340 341 341 346 348 348 345 345 342 337 336 336 337 337 337 337
333 333 333 333 333 333 333 333 333 332 330 331 329 327 326 323 323 325 326 333 331 333 335 335 335 334 336 340 341 339 341 341 342 348 346 345 344 340 337 337 337 337 337
334 333 332 332 332 332 333 333 333 332 330 330 328 326 325 322 321 322 323 325 332 334 335 336 336 335 336 338 340 341 342 340 338 346 347 342 343 341 337 337 337 336 336
332 332 331 331 331 330 329 331 332 330 330 329 328 327 322 321 319 319 321 323 326 328 331 338 336 337 335 336 339 339 341 343 338 344 346 347 344 342 338 336 336 335 334
331 331 331 330 331 329 328 327 324 322 329 328 328 326 321 319 319 317 320 321 323 326 328 332 337 336 336 335 338 340 341 343 343 345 344 346 347 347 341 338 337 336 335
331 332 331 330 329 330 327 326 323 319 321 328 327 327 325 322 320 320 318 320 321 325 327 328 331 337 336 335 336 338 341 341 343 342 347 345 346 346 347 346 345 344 343
332 332 330 329 330 328 327 326 324 320 321 326 326 324 324 321 319 319 316 319 322 324 325 326 329 334 336 337 333 333 341 338 341 342 346 343 343 345 344 344 345 343 343
331 331 329 328 329 329 329 327 325 322 326 326 324 322 322 320 318 318 316 320 322 324 324 324 328 332 335 338 334 340 337 343 341 340 339 343 343 345 343 344 346 343 344
331 329 328 327 327 328 328 326 320 324 326 327 327 325 322 320 319 318 317 319 323 323 323 329 331 332 334 335 335 335 340 338 341 341 340 343 342 344 345 344 346 345 345

GFSMA_850_thetae_006.txt.gz
Theta_e
346 346 345 346 344 347 345 348 343 345 345 345 346 347 345 344 343 344 343 345 344 345 339 338 330 336 327 324 328 335 329 327 327 327 330 336 337 333 332 332 334 333 333
346 346 345 347 348 347 346 345 344 342 343 346 346 345 345 346 343 345 343 344 345 343 341 339 333 331 332 324 324 326 330 328 327 328 327 328 333 332 331 332 332 337 335
344 348 344 343 343 345 345 343 344 347 346 345 347 347 345 345 343 344 342 345 345 346 345 340 336 332 324 327 324 329 329 329 328 328 331 329 329 329 329 328 327 328 328
348 346 342 343 343 343 343 342 345 347 347 346 347 346 345 346 344 346 345 341 344 345 344 346 343 338 337 328 328 326 325 331 334 329 330 331 333 331 328 327 328 328 329
347 345 346 344 346 346 346 347 347 347 346 344 342 347 347 344 346 344 345 345 343 344 346 347 347 343 341 340 339 329 328 326 329 328 332 332 333 331 327 327 327 327 327
348 346 346 345 345 345 344 342 341 341 341 343 344 343 344 347 346 346 345 343 345 346 343 345 347 347 345 342 341 341 330 327 327 327 327 328 326 326 326 327 326 326 327
344 344 343 342 342 343 344 342 340 339 342 341 343 340 340 338 342 344 345 346 344 344 344 345 347 346 345 343 341 340 339 327 323 324 326 326 326 326 326 326 327 329 332
345 344 341 340 342 340 339 342 337 336 335 336 339 341 343 339 337 341 343 343 344 345 344 344 344 345 347 346 347 346 342 338 326 336 326 323 325 327 328 329 330 332 335
343 342 342 342 338 336 337 341 341 338 338 337 338 342 341 339 340 340 347 346 345 344 344 345 344 344 344 347 346 347 346 344 342 341 336 325 326 329 332 335 335 335 336
331 331 333 338 340 339 335 339 337 337 336 337 337 338 339 339 342 341 335 341 343 346 346 344 344 345 344 344 344 346 347 346 344 343 338 333 332 333 332 335 338 337 337
336 337 339 340 333 336 336 336 336 337 335 335 336 336 337 336 337 341 342 338 336 341 342 342 340 345 346 344 344 343 347 347 347 344 342 338 338 338 337 338 338 338 337
334 336 337 336 328 331 333 333 332 334 336 333 334 335 336 336 336 336 338 338 339 337 340 340 340 338 341 347 345 344 344 343 346 346 343 342 340 336 333 333 336 339 338
334 335 335 332 332 333 333 332 333 333 335 336 334 333 333 333 332 332 333 332 334 335 337 338 338 339 335 339 347 347 344 345 346 346 345 344 339 336 335 335 332 335 336
334 333 333 336 333 333 333 333 330 334 333 330 329 328 328 327 330 331 332 332 333 333 334 335 338 338 341 341 338 343 346 346 344 343 344 345 344 341 337 331 329 329 330
335 334 335 333 331 332 332 331 332 331 333 333 330 330 329 322 327 325 328 330 332 333 333 333 336 337 337 336 339 339 340 343 345 343 342 342 341 340 340 339 332 330 332
329 331 331 332 332 332 331 331 331 332 330 329 330 328 328 326 321 324 324 325 327 330 334 331 333 336 334 336 336 339 339 338 341 343 343 342 341 338 336 337 338 337 337
335 334 332 333 331 331 330 333 332 331 331 333 329 329 328 326 321 319 320 321 323 324 330 333 331 334 337 333 335 335 340 340 344 345 343 342 342 340 337 336 336 337 337
333 333 332 332 331 331 332 331 332 330 331 329 329 328 328 326 322 319 319 319 320 322 327 335 332 333 334 333 332 334 337 341 343 345 345 344 343 341 337 336 337 337 337
332 333 333 332 331 330 330 329 330 329 330 328 329 329 328 324 321 318 318 318 319 322 323 327 332 333 334 334 333 335 340 339 338 337 346 346 344 344 340 336 337 336 336
334 333 331 330 328 331 330 329 331 332 329 328 329 328 327 326 321 320 319 319 317 320 323 324 327 334 336 335 334 334 338 341 339 337 347 342 342 345 345 341 337 336 336
334 333 330 331 331 331 330 329 330 327 325 320 322 326 326 327 325 323 320 318 319 317 320 322 324 327 332 336 337 334 336 339 340 340 339 342 345 345 342 342 340 337 336
334 332 331 331 331 329 328 327 326 326 324 322 319 323 324 324 325 323 319 317 319 318 319 321 323 324 326 331 336 337 334 336 342 339 339 337 345 344 344 340 339 336 335
331 329 330 332 328 328 329 328 326 325 325 320 320 323 324 325 320 318 318 318 318 317 320 322 323 323 325 329 332 337 335 334 337 339 339 338 342 346 344 343 341 337 335
330 330 331 327 327 327 328 327 326 325 324 321 325 325 324 323 320 320 320 319 318 319 322 322 322 323 323 326 330 335 336 334 339 341 338 338 338 342 344 345 341 344 343
329 329 329 326 329 327 327 327 326 326 324 323 325 325 323 322 322 322 321 321 318 320 321 322 321 322 324 325 329 332 335 336 337 340 339 337 339 342 346 344 346 344 344
331 324 331 331 330 328 326 324 324 322 321 323 324 323 322 323 322 321 321 321 321 320 320 322 321 329 333 328 327 332 334 338 334 339 338 337 336 342 340 342 345 345 344

GFSMA_850_thetae_009.txt.gz
Theta_e
345 345 344 343 344 343 345 344 346 343 342 343 343 344 345 344 341 344 345 342 342 344 342 339 335 330 329 325 328 330 327 327 328 329 329 334 331 330 332 334 331 331 331
344 346 344 345 346 344 346 345 345 343 344 344 344 344 346 345 345 343 342 345 342 343 344 341 339 334 331 326 324 328 332 327 326 327 327 329 334 336 335 331 333 333 336
344 344 342 344 344 344 342 343 343 342 345 345 344 346 347 346 347 345 343 344 343 344 345 343 342 338 329 329 324 324 325 327 328 327 328 327 328 330 330 330 329 328 333
347 349 347 345 344 344 343 343 343 343 344 344 344 344 344 344 344 346 343 344 343 341 343 344 343 342 336 330 326 325 324 329 328 328 328 328 329 328 328 328 327 327 328
347 349 347 346 344 345 345 344 342 342 343 341 340 338 339 342 346 343 344 345 345 342 340 342 345 346 344 341 338 332 328 326 326 330 329 328 328 329 330 328 326 327 328
348 349 346 345 344 343 340 342 341 340 339 338 338 337 334 334 337 343 344 344 345 345 344 342 341 343 346 345 341 340 339 331 327 327 331 329 330 330 329 327 325 326 326
341 341 343 337 337 343 343 342 341 339 338 335 334 335 332 333 334 330 333 340 344 344 343 343 345 343 343 344 344 342 340 340 334 327 327 327 327 327 326 325 325 325 326
343 343 342 342 341 335 336 334 336 338 339 338 335 334 336 333 334 337 340 341 342 341 343 344 344 345 342 345 347 345 341 341 340 331 325 326 326 326 326 325 325 325 327
342 340 334 334 339 333 336 337 337 339 337 335 337 337 338 339 336 334 334 335 340 343 341 343 344 345 344 342 343 343 344 344 342 340 328 326 330 324 324 325 326 326 329
330 331 335 334 335 333 331 336 338 336 336 335 334 335 336 336 337 336 335 335 336 338 339 341 343 343 342 346 345 343 343 343 344 344 343 334 336 333 323 325 328 331 333
335 335 337 338 337 333 326 330 333 333 332 335 334 333 332 333 334 336 335 333 333 334 335 336 337 338 333 336 342 345 344 344 342 344 346 343 342 339 328 329 329 332 336
334 335 335 335 334 327 330 330 330 331 333 335 334 333 332 331 331 331 331 331 330 328 329 330 332 335 334 336 336 336 343 345 346 343 342 345 345 342 337 336 337 336 336
334 334 334 333 327 326 328 330 330 330 333 332 330 328 328 328 328 331 332 329 328 327 327 326 327 329 332 336 337 336 338 335 340 344 342 343 345 344 342 338 337 335 334
330 333 333 334 333 327 332 332 331 331 331 334 332 329 327 327 323 326 326 329 327 326 323 323 323 326 328 332 336 337 335 333 336 344 346 343 345 345 344 342 340 337 334
332 334 335 334 329 323 331 331 331 331 331 333 331 329 329 326 324 321 319 320 323 325 322 321 322 325 326 331 333 335 336 334 337 338 345 346 346 344 344 345 343 339 335
326 328 327 328 329 325 325 329 331 331 331 331 329 331 328 327 325 321 319 319 318 319 321 319 322 324 329 330 332 335 335 336 334 336 341 343 344 344 342 342 342 343 340
330 332 331 329 326 328 330 331 332 331 330 330 330 330 327 326 325 322 320 318 318 317 316 317 321 323 327 333 331 334 335 337 338 338 336 339 342 343 343 342 341 339 338
330 329 328 331 332 330 329 329 327 329 329 328 327 326 326 327 326 324 320 319 319 319 318 318 316 320 323 330 331 332 334 334 334 335 339 339 338 343 343 342 341 340 338
328 330 332 332 330 328 328 329 330 328 329 328 328 325 323 328 327 326 324 322 320 317 317 318 317 319 322 324 331 333 334 334 334 334 335 338 336 342 342 342 343 340 337
325 330 333 332 329 331 329 329 329 329 328 326 324 322 321 321 326 325 325 323 319 317 318 319 318 319 321 322 326 330 334 334 333 335 336 340 338 337 339 341 342 344 339
327 331 332 330 329 330 331 328 330 327 326 325 324 324 322 320 324 323 324 321 318 318 318 319 319 321 321 322 322 325 328 335 335 333 338 339 338 333 335 340 341 345 343
331 333 332 330 329 330 329 326 328 328 327 325 325 321 322 323 324 324 323 319 318 320 319 319 319 320 320 321 321 324 325 329 336 334 334 339 338 334 341 342 339 342 343
334 332 326 328 329 328 325 326 327 326 326 325 326 321 322 323 323 323 322 319 321 321 321 321 320 320 321 321 321 323 325 326 333 335 334 335 338 339 339 338 342 343 340
333 331 325 327 327 325 328 327 327 326 324 323 323 322 323 323 321 322 321 321 321 320 319 318 318 320 321 321 320 321 322 324 330 335 336 334 337 337 337 335 338 341 344
333 331 330 329 326 330 328 328 326 324 323 321 321 322 324 323 322 322 323 321 320 321 319 319 319 321 321 321 322 322 321 324 328 336 334 336 335 337 337 336 338 341 340
334 334 330 329 327 328 328 327 324 323 323 324 324 324 322 322 322 323 322 322 320 320 318 318 318 320 321 321 329 329 323 325 331 336 334 335 337 340 337 336 338 338 341

GFSMA_850_thetae_015.txt.gz
Theta_e
343 344 344 343 344 344 343 343 343 344 345 342 343 341 344 344 342 343 341 342 342 342 341 341 341 338 330 327 326 326 325 324 323 322 322 323 324 325 325 326 327 328 329
343 343 344 345 345 344 345 343 343 342 342 342 342 344 343 344 342 342 343 343 343 342 341 340 342 342 338 331 328 326 327 326 327 326 324 323 324 326 328 329 330 332 332
342 344 345 346 344 346 344 343 343 343 343 343 342 343 342 343 342 342 341 342 343 343 341 341 341 342 341 338 335 330 325 328 328 327 327 328 329 331 335 333 332 331 332
343 344 344 343 344 344 345 343 341 342 342 340 339 337 335 334 335 334 341 342 341 344 343 342 341 340 341 342 339 335 331 325 325 332 329 327 327 327 332 335 336 336 330
346 349 345 344 344 346 343 342 341 340 339 338 335 330 329 329 327 330 332 339 342 341 341 341 342 343 341 341 342 340 334 330 326 324 331 330 328 328 328 327 328 329 328
345 343 345 346 342 338 334 330 332 337 336 336 333 332 331 329 328 331 333 333 334 340 342 341 341 341 342 341 341 342 342 341 336 329 325 326 329 328 328 328 330 328 328
345 347 341 340 336 336 334 329 329 329 331 335 334 331 329 330 331 337 339 338 338 339 338 336 340 339 342 342 342 342 342 341 342 342 339 333 327 327 328 329 329 329 332
345 342 341 340 339 337 336 330 332 335 332 333 332 330 331 333 332 332 332 334 335 336 337 341 339 338 338 340 341 341 342 343 343 342 343 340 339 337 328 329 331 330 331
342 342 339 336 329 329 329 327 325 329 333 332 331 332 333 334 329 329 330 329 330 330 333 336 339 340 340 340 341 341 340 341 342 342 343 343 341 339 339 333 327 328 328
338 338 331 327 329 330 332 326 327 328 328 329 331 332 332 331 330 330 328 325 324 324 324 326 327 330 332 334 336 337 338 338 342 341 341 342 341 342 340 339 330 325 326
335 329 327 330 333 334 330 327 328 329 329 330 331 329 329 328 328 327 324 322 321 321 319 319 320 322 325 327 328 332 335 334 333 332 340 342 341 341 342 341 340 331 327
331 327 330 334 334 333 326 323 326 328 330 331 329 326 326 326 326 326 325 322 321 321 319 318 318 318 318 319 321 323 327 332 333 336 335 336 342 341 341 341 342 342 336
329 323 326 331 333 329 326 323 328 330 329 329 330 331 329 327 327 325 325 322 320 320 319 318 318 319 318 317 317 318 321 323 330 334 335 334 339 338 338 342 342 341 341
321 324 328 330 330 330 329 323 322 327 329 329 329 329 330 328 328 326 326 323 320 320 320 319 319 318 317 316 316 316 317 317 324 329 335 336 336 336 337 335 339 340 339
324 332 325 326 328 329 326 325 322 325 328 329 330 329 330 329 329 326 326 325 324 320 319 319 320 319 317 316 317 317 317 317 321 326 329 335 337 337 337 336 339 342 337
332 327 323 328 328 324 324 325 326 328 329 330 330 329 328 329 328 326 325 325 325 324 319 320 321 319 316 316 318 318 319 320 322 325 329 331 334 337 335 335 335 336 338
319 320 323 326 326 325 328 329 328 328 328 327 328 328 327 326 327 326 323 322 325 326 326 324 323 319 316 317 317 318 319 319 320 321 326 330 333 335 337 337 335 333 335
320 322 324 324 326 327 327 326 326 327 329 328 329 328 327 327 326 324 322 323 323 326 327 325 323 320 317 316 317 318 318 318 318 319 320 325 330 332 334 337 335 335 341
320 321 322 323 324 327 327 328 328 327 327 328 328 328 325 325 323 323 323 323 324 325 326 325 322 320 318 318 318 319 318 318 318 318 319 320 327 331 333 336 336 336 340
321 321 322 323 324 327 329 329 329 329 328 328 326 325 325 324 324 324 321 322 323 324 324 324 324 321 319 319 319 318 317 317 317 318 320 319 320 329 332 334 334 335 338
320 322 324 325 327 331 331 328 329 327 327 325 325 324 325 325 325 325 321 322 323 323 324 324 323 321 321 320 320 317 317 317 318 318 318 318 320 322 331 333 333 334 335
322 322 326 328 330 330 330 328 328 325 325 327 326 325 323 323 324 323 322 322 322 321 321 322 322 321 320 319 317 317 317 317 318 318 320 319 319 325 327 332 332 333 334
321 322 327 332 330 327 328 328 327 325 326 327 327 324 322 322 322 323 322 323 322 321 322 322 321 321 320 317 317 317 316 317 318 318 319 319 319 321 329 334 333 332 333
324 324 328 331 332 331 330 329 327 325 326 326 326 324 323 323 323 322 323 322 321 321 322 322 322 320 319 318 318 316 316 318 319 318 319 319 321 321 325 333 334 333 334
324 329 328 330 330 331 331 328 328 327 327 326 326 323 323 322 323 323 321 320 320 321 321 319 318 319 320 319 317 316 318 318 318 318 319 320 320 321 323 330 334 333 336
330 332 329 331 331 331 329 327 326 327 325 324 324 323 322 322 319 317 320 320 321 321 319 317 318 320 320 318 317 316 318 318 318 318 320 321 321 321 323 330 334 334 335

GFSMA_850_thetae_021.txt.gz
Theta_e
343 343 341 343 342 345 343 342 342 342 342 342 342 342 342 343 342 343 342 341 341 341 341 341 340 341 340 334 327 330 336 334 329 324 323 323 323 322 324 326 325 326 327
345 344 342 341 344 344 344 345 344 343 342 342 342 342 342 342 342 342 341 341 340 340 341 340 340 340 341 342 337 329 326 338 332 326 323 335 329 323 324 324 325 326 327
344 343 343 342 342 343 343 342 344 344 342 341 342 340 339 337 336 338 340 341 341 338 336 340 341 341 341 342 343 340 334 328 336 336 328 325 326 324 324 325 327 329 330
343 340 342 342 344 343 343 343 342 337 335 338 339 337 335 332 328 328 327 328 333 335 338 340 340 340 341 340 341 342 343 340 330 331 329 331 330 327 327 328 331 335 335
345 344 343 342 345 345 343 337 333 331 326 326 335 335 331 325 328 329 327 326 327 328 329 339 339 338 340 341 341 341 341 342 340 333 330 326 331 334 328 327 327 331 335
344 343 343 343 343 344 337 335 335 326 323 324 328 331 331 329 331 332 334 335 335 333 332 330 335 341 340 341 340 341 341 340 342 342 338 333 328 326 328 332 330 328 328
344 343 344 344 342 339 336 336 328 323 335 329 327 334 328 330 333 332 335 336 336 336 336 337 337 334 340 341 341 339 341 341 340 341 341 342 342 338 332 326 327 331 330
344 345 345 340 339 337 336 330 322 328 324 327 331 329 334 337 337 334 333 331 330 331 332 334 337 339 339 338 338 338 338 339 341 341 341 341 341 341 341 339 334 329 328
344 337 334 338 338 337 330 322 322 323 332 327 326 331 334 334 334 334 331 325 323 323 324 326 330 333 336 339 339 340 339 337 339 341 341 341 341 341 341 341 341 339 337
332 338 340 337 334 329 323 325 323 324 323 327 327 328 329 331 334 333 329 322 321 321 319 319 320 321 323 325 328 331 334 336 337 338 341 341 341 340 341 342 341 341 340
334 341 333 336 330 323 327 328 323 320 323 326 329 329 328 326 326 331 328 328 327 321 319 318 318 318 318 318 318 318 319 322 325 328 332 335 336 336 338 341 342 341 341
334 341 337 333 326 329 331 327 323 323 326 327 327 327 327 330 330 331 331 330 328 325 320 319 319 318 318 318 317 317 316 316 316 317 319 320 325 330 334 333 338 341 342
331 334 334 331 327 332 331 326 324 324 326 327 327 328 330 330 329 329 330 330 329 326 320 319 317 318 318 319 320 318 316 317 316 316 316 316 316 319 322 331 333 336 342
332 335 332 328 330 331 330 328 327 324 321 324 326 328 329 329 329 330 331 330 328 326 325 320 317 317 319 319 320 320 317 317 317 317 317 318 318 318 319 323 330 335 335
329 330 328 325 328 329 328 328 326 325 323 324 326 328 329 331 330 329 328 329 329 327 325 325 323 320 318 318 318 321 320 318 317 317 317 317 317 317 318 318 323 328 335
323 323 322 327 329 327 327 325 322 324 326 329 328 327 327 326 328 327 327 329 328 328 326 324 325 324 320 320 320 319 321 320 319 318 317 317 317 317 317 317 318 321 327
319 322 325 328 330 325 327 324 324 327 328 326 326 326 326 328 328 328 327 327 327 326 326 324 325 325 320 321 323 323 322 322 319 319 318 317 317 317 317 317 318 317 320
323 325 327 328 323 324 326 325 327 328 326 327 325 326 327 328 327 326 325 325 325 325 325 326 325 327 326 321 320 320 320 320 319 319 318 318 318 318 318 317 318 318 318
322 324 325 321 321 324 324 325 325 327 328 327 326 325 324 326 325 324 325 325 327 326 326 325 324 325 325 321 321 321 322 321 321 320 319 318 318 319 318 317 317 318 318
333 329 320 320 322 324 324 325 327 326 328 326 326 326 325 325 325 324 324 323 323 324 326 325 323 325 326 325 324 324 324 324 323 323 321 319 319 319 319 317 317 318 319
333 331 321 326 325 324 324 326 327 325 326 325 325 325 324 326 326 326 324 323 322 325 327 327 326 326 325 325 324 323 324 323 322 322 321 321 321 321 320 319 320 320 319
338 334 328 326 329 324 324 327 328 327 326 326 326 325 325 326 327 327 326 324 322 322 323 324 326 326 323 324 323 324 323 321 321 321 321 321 320 319 319 320 320 319 319
336 335 332 327 330 330 327 326 329 328 327 328 328 328 327 326 326 326 325 323 322 322 322 322 322 322 322 322 321 319 318 319 320 321 320 319 319 318 318 319 319 319 319
337 339 332 325 333 331 328 325 330 329 329 329 329 329 328 327 326 325 324 321 322 322 319 319 320 320 320 319 317 317 319 320 319 320 320 319 319 318 318 318 318 318 319
339 333 330 325 332 332 328 329 329 329 329 329 330 329 328 327 324 324 321 320 317 317 319 319 319 319 317 314 319 319 320 319 320 319 319 318 317 317 317 318 318 319 319
335 336 333 330 331 330 326 330 324 325 327 330 329 326 327 325 324 321 320 318 317 318 318 317 317 315 315 319 320 319 319 318 319 318 317 317 317 317 318 319 320 320 320

GFSMA_850_thetae_024.txt.gz
Theta_e
350 350 350 346 348 348 350 349 349 349 350 349 349 349 349 349 349 347 346 344 341 341 340 340 341 341 340 333 328 337 335 330 329 324 323 337 334 325 323 328 329 327 327
350 345 346 349 348 349 350 348 345 347 348 351 349 349 348 347 347 345 346 347 344 340 338 339 340 340 340 341 338 328 333 337 334 331 325 323 326 325 323 324 325 325 326
344 344 347 346 348 350 344 346 346 349 347 346 347 346 346 344 341 342 340 341 345 345 341 336 339 340 341 341 343 342 332 327 333 337 332 325 332 334 324 324 325 327 328
344 344 343 345 347 348 350 348 347 344 341 339 338 338 338 338 335 336 335 337 335 338 344 341 338 339 340 340 340 341 342 341 333 334 336 335 329 327 327 327 328 330 331
346 347 345 349 346 348 347 348 343 343 338 335 333 332 334 336 336 336 339 340 339 337 338 341 338 339 338 340 341 341 341 342 342 339 333 330 327 335 334 328 327 328 332
349 350 349 348 343 349 348 345 341 338 334 336 335 333 336 337 338 339 340 339 341 341 342 342 342 341 340 339 340 341 342 341 341 342 340 335 332 328 329 332 332 328 327
345 350 349 348 344 346 346 342 339 333 332 337 335 334 334 337 337 338 339 337 338 339 341 342 343 342 343 340 341 341 339 339 340 341 342 341 341 340 336 331 327 330 331
350 348 348 350 345 343 341 343 338 331 334 337 335 334 334 337 337 338 337 334 334 335 336 337 341 340 342 342 340 339 340 339 341 341 340 340 341 341 341 341 339 335 328
349 346 346 345 341 340 339 338 336 335 333 335 330 335 335 334 334 337 338 333 331 330 331 333 331 329 333 335 339 339 340 340 339 338 340 340 339 340 342 342 342 341 339
349 346 335 338 340 340 337 334 334 328 328 333 335 337 337 334 336 335 334 332 330 329 326 327 326 320 319 324 323 325 328 331 334 337 338 339 340 340 341 343 344 343 341
344 344 341 336 332 336 334 324 325 326 333 334 335 335 336 335 335 333 331 331 330 329 328 327 326 325 323 318 325 318 317 317 318 321 324 328 331 334 339 340 340 342 343
343 338 341 338 337 333 330 331 324 322 323 329 334 334 333 332 332 333 332 333 332 330 328 327 327 326 325 325 321 318 317 317 316 316 316 317 318 320 323 328 333 334 336
341 338 339 336 336 329 327 330 327 334 331 334 334 333 333 333 332 332 331 330 330 329 328 327 326 326 326 325 326 322 320 318 317 317 317 317 317 316 316 317 319 324 332
340 341 333 335 332 327 327 328 333 335 335 334 334 334 332 332 332 331 331 330 329 327 328 330 328 326 325 326 325 321 324 326 319 317 317 317 317 317 317 317 317 317 320
339 334 333 333 330 329 328 329 333 336 335 334 334 334 333 332 331 331 331 330 329 329 328 328 328 327 327 326 327 326 326 324 319 321 319 318 318 318 317 317 317 317 317
326 324 328 325 324 327 327 326 335 335 334 332 333 333 334 331 331 332 331 331 331 330 329 328 326 327 328 328 328 326 328 325 323 322 322 320 319 318 318 317 317 317 317
322 320 319 320 324 328 328 326 328 332 335 334 334 334 334 334 333 331 331 331 331 330 329 328 327 328 329 330 330 329 329 328 327 326 323 319 318 318 317 317 318 318 318
321 319 321 323 321 324 332 335 331 334 335 334 334 334 333 333 333 331 331 331 330 330 329 328 328 329 328 328 329 329 329 327 327 326 325 321 318 317 317 318 318 318 317
321 321 332 332 326 323 324 323 324 326 331 333 334 334 333 333 333 332 332 330 329 330 329 330 329 328 328 327 327 329 328 326 326 326 325 324 324 322 317 316 317 318 318
324 322 330 334 332 321 321 323 323 323 326 334 335 334 334 333 333 332 332 331 331 330 329 329 328 329 328 327 327 327 327 325 324 325 325 324 323 322 323 323 322 321 321
327 324 329 335 329 323 320 323 328 324 329 335 335 335 335 334 326 326 328 329 329 328 328 326 326 327 327 327 327 326 324 325 323 325 323 322 322 323 324 323 323 322 322
331 327 326 333 332 325 326 324 323 326 328 336 336 336 336 331 327 326 325 326 327 326 324 326 325 326 327 327 324 324 324 323 323 322 321 322 323 323 323 323 322 320 320
332 327 327 335 337 329 327 327 325 326 332 336 332 333 329 329 332 329 327 326 325 324 322 323 324 326 325 325 324 323 322 322 321 321 323 323 323 323 322 321 321 320 318
340 332 329 331 336 338 333 329 331 330 329 331 330 326 327 329 330 329 327 326 326 327 327 325 325 324 323 322 320 319 318 317 319 321 322 323 322 322 320 320 318 319 319
339 336 335 334 339 337 337 334 332 331 330 331 329 325 326 328 329 328 327 324 324 325 324 323 322 319 316 315 315 318 319 321 321 321 321 321 320 320 319 319 320 320 321
341 339 339 339 338 337 337 331 332 331 331 329 326 326 326 326 326 326 325 323 324 325 324 322 320 320 319 320 320 320 320 320 321 320 319 319 320 318 318 318 319 321 322

GFSMA_850_thetae_027.txt.gz
Theta_e
349 348 351 349 346 347 349 349 348 348 348 350 348 350 349 348 347 347 348 346 344 338 340 339 341 340 339 334 329 339 334 329 326 322 321 331 337 328 325 326 328 336 333
350 350 350 348 350 347 349 350 349 349 348 346 346 345 346 347 347 346 345 345 345 344 340 337 337 339 340 340 339 331 339 337 333 330 324 323 336 330 323 323 326 326 325
350 347 349 350 347 348 349 347 349 348 345 346 343 343 341 343 342 340 340 338 342 342 342 341 340 336 340 340 341 341 331 333 339 336 330 326 323 331 332 325 324 325 326
350 350 350 350 348 349 349 350 348 345 343 341 338 337 337 337 336 335 336 337 337 336 342 340 340 337 337 339 340 341 342 340 330 331 339 335 329 326 334 327 325 327 328
352 351 349 349 350 350 350 348 346 343 340 334 332 332 334 336 337 337 339 340 340 337 337 342 342 339 335 337 339 340 341 341 342 339 333 333 335 333 330 330 328 328 331
352 350 348 350 349 348 350 347 344 342 336 337 336 334 336 337 337 338 340 339 341 340 343 343 343 344 341 339 337 340 341 342 341 341 341 338 335 332 328 333 335 331 328
349 350 348 349 348 347 346 346 342 333 335 336 337 336 334 337 337 338 339 337 339 340 340 342 345 345 344 341 338 340 340 340 341 341 341 342 341 338 337 334 328 328 330
353 348 350 348 348 348 344 343 340 336 333 339 336 335 336 337 338 338 337 335 335 335 337 340 341 337 342 341 339 340 340 340 339 340 341 341 341 341 341 341 339 338 335
347 347 353 348 351 340 343 343 338 336 334 334 335 337 337 338 335 338 339 336 334 333 333 336 332 326 332 336 338 337 339 339 339 339 339 339 340 340 340 341 341 341 340
347 351 351 347 345 346 341 337 337 329 330 334 335 338 335 335 337 337 336 335 333 332 329 329 329 326 321 329 323 321 322 325 328 332 335 337 338 339 340 340 340 341 342
347 346 345 348 347 340 339 330 338 335 336 334 336 335 337 336 335 333 333 333 332 332 331 330 329 328 328 324 328 320 317 318 318 317 318 321 324 328 333 336 338 340 341
347 346 347 346 345 342 339 339 339 336 331 336 336 334 333 333 334 334 333 333 333 332 332 330 329 329 327 327 326 324 319 318 318 317 317 317 317 317 318 321 325 330 336
343 345 346 342 340 336 341 339 333 334 337 337 336 336 334 333 333 333 332 332 331 331 331 330 328 328 328 328 328 327 326 318 319 319 318 317 317 317 317 317 317 317 318
342 341 336 333 337 343 337 336 335 336 338 337 337 336 335 333 332 333 332 331 330 330 329 332 331 330 329 328 328 326 326 328 325 321 321 319 318 317 317 317 317 317 317
342 341 335 335 329 337 334 337 327 338 337 337 336 337 336 334 332 333 332 331 331 330 329 330 330 329 329 330 329 328 330 330 329 323 320 320 321 320 319 318 318 317 317
341 342 333 322 325 324 330 320 333 338 336 337 335 335 336 334 333 332 333 332 332 331 332 331 330 329 330 330 330 330 328 328 328 328 326 323 323 322 319 319 318 318 317
343 332 324 321 319 327 326 324 319 330 338 337 337 334 331 334 334 333 332 332 332 331 331 331 331 330 331 331 330 329 331 330 330 329 328 327 326 322 319 319 318 317 317
340 330 323 319 320 332 324 323 323 336 336 337 336 333 336 334 335 334 333 330 331 330 331 330 331 332 331 331 330 328 329 329 329 328 327 325 326 325 325 323 319 317 317
337 332 323 319 324 332 325 327 323 327 332 335 332 336 336 335 335 334 334 334 330 330 332 332 330 328 328 329 329 329 329 327 329 329 327 326 326 326 325 324 322 320 318
335 335 326 321 327 332 327 325 324 325 333 330 336 335 336 336 336 334 334 333 332 331 332 329 330 329 328 327 329 328 328 328 328 327 327 324 325 325 323 323 324 324 324
339 337 328 321 326 332 335 330 328 326 328 330 336 335 336 334 335 332 332 331 330 329 329 329 328 327 326 326 328 328 327 325 326 326 324 325 324 323 322 322 324 324 325
345 338 327 323 326 334 338 333 327 326 336 336 337 337 333 334 335 330 328 330 328 326 326 326 327 327 325 327 327 326 327 325 324 323 323 322 321 321 324 324 324 324 324
346 343 338 325 328 339 335 334 334 327 337 336 336 335 331 329 328 326 327 327 329 328 327 327 326 326 326 327 326 324 324 324 323 321 321 320 323 323 323 323 322 324 323
347 343 339 333 335 339 335 336 336 328 331 333 335 335 328 328 328 326 326 328 328 328 329 327 327 325 326 325 323 321 318 318 320 321 322 323 323 323 321 323 322 320 318
348 345 342 341 341 338 337 336 338 336 336 334 331 329 329 329 329 326 326 326 325 324 328 327 326 324 324 320 317 318 320 320 321 321 322 322 322 321 320 319 319 318 318
347 345 342 341 340 338 336 337 338 336 337 338 336 332 330 330 327 327 326 326 325 328 327 327 325 324 320 320 319 321 320 321 321 321 320 319 319 318 320 320 319 317 318

GFSMA_850_thetae_030.txt.gz
Theta_e
350 347 346 346 349 348 346 348 349 345 346 347 345 345 345 347 345 348 348 346 342 341 338 335 338 340 339 332 328 335 329 328 323 326 324 323 325 329 327 326 325 333 338
352 350 351 347 348 348 350 349 347 344 345 346 345 342 340 341 344 344 345 343 343 342 341 338 336 335 340 340 339 331 335 334 329 328 323 322 335 337 329 324 326 329 328
346 346 346 347 350 349 348 347 347 345 342 345 345 347 338 342 344 340 339 338 336 336 339 339 337 335 335 339 340 340 337 333 337 334 330 327 324 328 326 325 323 324 324
347 346 346 349 350 348 349 348 347 345 343 342 336 335 335 336 336 334 336 338 338 338 342 340 340 339 336 337 339 341 341 338 331 332 337 334 330 325 328 336 330 324 325
348 348 348 349 347 346 348 350 346 345 343 334 334 334 334 335 337 338 338 339 340 339 336 343 342 338 335 334 337 339 340 341 340 339 331 332 337 335 332 328 328 328 328
348 349 348 348 349 349 348 348 346 341 335 335 338 333 335 336 338 339 338 341 341 339 342 344 344 343 343 339 338 336 340 340 341 341 341 339 334 332 331 329 333 335 332
348 347 346 345 349 347 347 344 344 333 334 336 335 336 338 336 335 339 338 337 337 340 338 338 341 344 345 342 337 338 339 339 340 341 341 341 340 338 336 335 330 328 330
348 347 342 350 348 347 346 345 341 329 334 339 330 335 337 338 338 338 336 334 334 334 337 337 339 339 340 339 339 338 338 340 340 339 338 340 340 341 341 339 338 336 334
346 350 347 345 349 345 346 344 339 334 334 335 336 337 340 340 338 338 337 336 330 334 334 333 328 327 338 338 332 335 336 338 338 338 338 339 339 340 340 340 340 340 340
348 347 343 348 347 340 344 338 335 328 328 336 335 338 334 333 339 338 338 335 332 332 329 331 329 329 325 328 326 320 319 319 321 323 327 332 336 338 337 338 340 340 339
343 350 350 347 344 345 339 337 337 325 336 334 337 336 337 334 333 330 333 334 333 332 331 330 330 328 328 327 325 323 319 317 316 317 317 317 317 320 325 329 334 337 339
343 347 346 345 346 337 339 333 328 321 330 334 336 335 334 334 335 334 334 333 331 332 333 331 330 329 329 328 328 328 327 324 318 317 318 317 317 317 317 317 318 320 324
346 343 345 345 341 333 336 327 321 335 323 327 332 335 335 334 333 333 333 332 332 331 331 331 330 329 329 328 328 327 328 326 325 324 321 319 318 318 317 317 317 317 316
345 345 344 340 337 331 330 320 317 320 324 332 329 326 333 335 333 333 332 332 331 330 331 330 331 332 330 329 328 328 327 327 324 321 321 321 318 319 319 318 318 317 317
346 343 343 341 326 326 324 325 324 327 327 334 332 333 334 334 333 332 333 332 331 330 331 331 332 332 330 329 330 329 329 329 329 326 324 324 323 321 319 320 320 319 318
347 344 342 340 328 325 325 326 324 327 328 329 336 335 335 335 334 333 332 332 332 331 330 329 331 332 331 330 330 330 330 329 329 328 329 328 329 327 324 321 320 320 319
351 343 342 340 325 323 324 329 325 326 336 331 326 332 336 333 329 332 334 334 332 333 331 329 329 332 331 330 329 328 328 328 329 329 330 330 328 325 325 325 324 321 318
350 350 342 334 328 322 323 331 324 327 335 328 323 322 323 329 335 334 332 331 331 331 331 331 330 331 330 329 328 328 329 327 328 329 327 327 328 328 326 326 326 324 323
345 343 344 341 329 322 321 332 323 325 327 328 323 322 323 332 333 332 334 333 332 331 331 330 331 331 328 330 329 330 329 329 327 327 327 328 327 327 325 324 325 325 323
342 340 341 340 333 323 320 331 325 328 325 323 322 322 328 333 332 333 333 332 332 332 333 332 329 330 331 328 328 327 327 326 326 326 327 327 325 324 325 326 325 324 322
346 345 345 343 337 324 320 331 329 328 326 323 326 325 329 330 331 335 333 331 329 328 328 327 327 326 325 326 325 324 326 328 328 327 326 325 323 323 324 324 323 322 324
355 352 348 346 340 326 321 332 333 331 330 329 326 333 332 336 337 335 332 331 326 325 326 328 327 327 326 325 324 325 327 326 325 322 325 323 319 319 315 314 319 322 324
357 355 353 348 342 329 324 333 337 333 331 330 329 332 331 336 333 333 328 329 326 326 327 328 327 325 326 325 324 324 323 322 321 318 315 316 319 320 321 321 323 325 321
358 356 352 346 341 335 326 338 339 334 332 333 337 334 332 333 331 329 327 328 328 326 326 327 324 321 324 325 325 324 323 318 317 318 320 321 321 321 322 323 321 324 322
356 354 350 346 341 337 337 338 337 335 334 333 332 333 333 329 329 329 329 330 329 327 326 326 327 327 327 326 324 321 318 319 320 321 320 320 321 322 320 319 318 316 315
355 351 349 345 343 342 341 341 340 338 337 338 337 334 332 330 331 330 331 329 327 327 326 327 327 326 324 322 320 321 319 320 320 321 320 321 319 315 312 314 317 319 319

GFSMA_850_thetae_033.txt.gz
Theta_e
347 346 346 347 347 348 348 347 346 345 344 345 344 344 339 345 345 344 343 344 341 340 338 337 336 339 335 327 328 329 326 325 322 330 334 331 324 326 334 326 324 328 338
343 348 346 345 346 347 349 346 345 345 343 344 343 345 337 340 343 345 342 341 340 340 339 337 335 335 338 340 334 329 334 328 327 324 322 321 323 332 330 326 325 327 330
344 342 345 345 349 349 348 347 346 344 342 342 341 338 335 338 345 337 335 334 337 335 338 338 336 334 334 337 340 340 335 333 335 329 327 323 322 330 336 329 323 323 324
347 347 346 344 345 347 346 346 345 344 343 342 337 334 336 335 335 335 335 337 338 337 340 340 340 338 337 335 338 339 341 339 331 335 335 328 326 326 323 326 331 327 324
347 347 346 347 345 346 344 344 346 345 343 331 336 335 335 334 337 337 338 340 340 340 337 341 341 340 337 336 336 338 340 341 339 335 330 334 336 334 331 326 330 331 327
347 347 346 346 346 347 348 347 347 345 330 333 336 334 332 334 335 339 336 341 338 339 338 342 342 341 341 339 336 336 338 340 341 340 341 337 332 332 332 332 331 330 331
350 348 345 347 344 349 345 342 341 339 333 334 334 335 334 337 336 339 338 337 338 338 337 337 339 339 343 343 339 336 337 338 340 340 341 341 340 339 334 332 329 327 328
347 345 344 345 345 347 346 343 342 327 336 337 334 334 338 338 336 338 338 332 335 335 338 336 333 334 339 338 338 337 337 338 339 339 339 339 339 340 341 340 339 337 335
349 346 345 343 345 345 345 343 342 328 335 335 335 336 339 339 338 338 337 335 331 333 334 333 327 324 331 333 329 332 330 335 338 338 338 337 337 339 340 340 340 340 340
349 344 346 343 343 344 343 343 340 318 330 336 335 337 333 333 339 339 338 336 332 330 331 328 328 327 325 324 321 321 318 318 318 319 322 327 334 337 338 338 338 338 340
350 346 346 342 344 342 339 340 335 318 324 335 336 337 334 334 334 332 337 336 333 332 331 331 330 329 326 327 325 324 323 324 319 317 317 316 317 317 319 323 327 332 336
347 344 345 347 345 338 345 337 333 320 317 329 336 335 334 334 335 335 334 333 332 333 332 331 331 329 329 328 328 327 326 326 323 320 318 316 317 317 317 317 317 317 318
349 342 343 349 338 341 337 327 321 318 319 321 325 332 334 334 333 333 333 332 332 331 332 331 331 329 329 329 330 328 328 327 328 327 327 321 320 318 318 318 317 317 317
350 343 342 340 340 341 326 323 321 319 320 320 322 323 335 334 333 333 332 331 332 330 330 333 330 329 329 330 330 329 328 329 330 329 328 324 321 321 320 318 318 319 318
350 347 345 343 336 328 326 322 320 320 324 328 324 320 325 333 333 333 333 333 331 331 329 329 330 331 331 330 329 330 330 330 329 328 327 328 327 327 328 325 322 321 321
351 349 347 344 342 339 324 322 322 323 325 325 326 325 328 326 329 332 333 331 331 331 330 330 328 330 332 331 331 331 329 329 328 326 327 327 329 328 328 326 325 324 321
352 348 347 344 342 341 332 321 326 325 324 328 328 328 331 331 329 331 333 333 333 332 332 331 330 329 330 329 328 328 326 327 328 327 326 328 328 327 326 326 326 326 325
351 353 352 347 343 341 330 321 327 328 324 330 331 329 329 328 325 322 331 332 331 330 330 331 330 327 328 330 327 328 329 329 329 326 328 326 327 326 327 327 328 327 325
339 346 350 350 348 343 337 324 323 330 323 326 329 329 324 323 320 328 330 330 332 331 332 331 329 328 327 327 330 329 330 330 327 327 324 327 326 326 328 325 324 325 325
345 344 341 343 344 346 342 334 321 330 324 326 327 326 324 323 322 328 330 331 330 331 331 331 330 330 329 328 329 327 326 325 322 325 327 328 327 326 326 325 324 324 325
347 348 347 346 347 347 346 342 324 327 326 327 327 333 325 324 325 328 329 329 331 330 328 327 325 326 327 327 326 325 323 323 323 323 323 322 322 321 320 318 316 318 320
352 351 353 352 351 350 349 347 331 323 328 328 327 326 326 327 328 329 331 332 332 333 331 326 325 327 327 328 326 325 324 322 322 318 321 317 315 313 315 318 320 320 321
356 356 356 357 356 354 351 347 337 325 330 331 330 329 332 329 332 335 334 332 334 331 330 326 327 326 327 323 323 323 323 324 322 319 317 319 319 319 318 319 319 320 322
360 359 358 358 356 353 350 346 338 329 333 335 333 332 334 332 333 329 330 330 329 329 330 329 327 326 325 325 326 327 325 324 321 318 319 320 320 320 321 320 319 320 320
361 361 358 356 354 350 347 343 336 331 337 337 334 335 336 337 336 331 329 328 328 329 331 329 326 326 326 326 325 324 323 322 320 320 320 321 321 320 320 316 312 311 315
362 359 355 354 351 349 345 342 339 335 337 338 335 334 334 336 334 332 329 328 330 330 328 327 327 327 327 325 321 320 321 322 322 322 319 317 315 313 311 311 312 317 317

GFSMA_850_thetae_036.txt.gz
Theta_e
347 348 346 345 346 346 347 346 345 345 343 346 343 342 340 343 345 343 344 342 340 339 339 339 339 338 329 326 328 327 324 325 330 334 331 328 326 326 327 324 324 326 337
344 346 346 344 347 348 346 344 345 344 343 342 341 340 336 338 342 342 337 337 338 338 337 337 335 336 339 337 328 329 329 326 325 324 333 330 324 323 330 325 325 326 329
346 343 342 345 347 348 346 346 346 345 341 341 340 338 335 338 341 336 335 332 337 334 337 337 337 335 334 336 339 337 331 334 330 327 325 322 321 327 335 333 324 323 326
349 346 347 343 343 344 345 346 345 343 342 341 336 333 333 335 335 335 335 336 335 338 337 339 339 339 337 334 338 340 340 339 334 336 332 330 326 323 325 332 327 325 324
349 347 343 345 344 344 344 345 345 345 342 331 334 334 334 335 335 335 337 339 338 337 337 340 338 340 337 335 335 337 339 341 340 333 331 334 334 332 329 325 325 332 333
347 348 343 344 344 346 344 344 345 345 335 328 332 333 333 334 335 339 338 339 339 338 337 341 343 339 339 339 334 335 337 339 340 340 339 337 331 331 334 335 334 331 329
348 349 348 345 342 344 344 341 342 338 329 333 335 334 334 336 337 339 340 337 336 336 336 336 338 338 339 343 342 337 336 335 339 340 340 340 341 340 339 335 332 331 330
348 346 342 342 345 344 345 343 342 331 327 335 329 334 335 337 338 338 336 334 334 335 335 334 329 330 336 339 337 336 336 337 338 338 339 340 340 340 340 341 339 337 336
346 347 345 342 344 344 343 343 340 337 332 334 334 337 339 337 338 337 335 334 330 331 332 332 327 323 326 331 327 331 328 334 337 338 339 339 338 338 339 340 340 340 340
348 349 346 344 343 342 345 343 341 322 328 334 335 333 335 338 339 337 336 336 330 331 331 329 329 328 325 325 323 320 318 317 317 319 321 323 329 334 337 338 339 339 339
350 350 346 342 339 341 344 342 338 330 323 332 335 336 331 331 334 338 338 336 333 332 332 329 330 329 329 329 328 326 325 324 322 320 318 316 316 317 317 318 320 325 329
348 350 345 345 341 341 343 338 337 333 324 330 335 336 333 333 334 335 335 332 332 332 332 331 330 330 329 330 329 328 328 326 326 327 326 325 319 317 317 317 316 316 316
347 349 345 344 337 342 335 335 331 326 318 321 333 335 334 333 333 333 333 333 332 331 331 332 331 330 329 329 329 329 328 328 329 329 327 326 325 319 319 317 317 318 317
348 347 348 343 336 338 331 330 325 320 319 319 322 328 332 334 333 333 333 332 330 331 330 332 331 331 330 329 328 329 328 329 330 330 327 325 327 326 324 323 322 320 318
349 350 345 340 335 332 328 324 322 320 320 320 321 321 327 334 333 333 332 332 332 331 330 329 329 329 331 330 328 329 330 330 329 327 326 327 327 327 328 328 328 327 324
352 351 349 346 343 339 329 323 321 321 324 322 323 322 321 321 333 333 332 332 332 331 330 329 329 329 331 331 331 331 329 329 328 327 328 326 325 327 328 327 327 326 326
350 351 351 349 347 344 342 339 324 322 328 323 324 323 323 327 325 329 330 331 332 332 332 330 330 329 329 330 329 329 329 328 327 328 328 327 326 324 326 327 327 326 327
349 350 352 350 348 346 343 342 339 322 329 325 325 327 324 323 327 327 325 331 331 331 332 331 330 328 328 327 328 329 326 328 329 328 329 326 325 325 327 326 327 327 326
346 347 351 351 349 348 345 343 340 327 323 329 325 329 327 324 323 326 325 322 330 331 329 328 330 328 328 329 329 327 328 328 328 328 326 321 325 326 326 326 326 326 325
342 342 344 351 352 351 350 346 343 338 324 327 326 327 329 329 326 325 322 328 329 331 330 329 329 329 326 325 327 329 329 327 324 322 321 323 327 327 327 326 326 325 325
341 341 344 344 346 348 350 349 347 345 339 324 328 325 327 329 330 329 325 329 331 332 331 332 331 328 325 326 327 327 327 326 324 320 318 317 318 316 316 315 314 314 314
341 344 345 345 344 346 348 349 349 347 345 334 324 327 327 327 330 333 329 331 333 333 332 332 332 331 326 327 326 325 324 324 322 322 321 319 317 319 318 318 318 318 319
343 344 348 350 351 352 352 352 351 349 346 344 326 328 327 329 329 333 333 333 330 329 330 330 331 330 328 328 326 324 323 326 326 324 322 319 318 319 319 318 317 317 315
345 345 350 353 353 353 355 355 354 352 348 344 331 328 330 331 332 334 331 334 333 331 330 331 331 330 330 326 325 326 326 325 324 321 321 321 320 321 319 318 316 313 309
347 348 352 354 355 356 355 356 353 349 346 340 331 330 334 335 334 333 334 333 332 329 329 329 329 329 327 325 326 326 325 321 320 321 321 322 318 315 314 313 311 310 310
350 352 356 357 357 357 356 353 348 345 342 337 333 333 337 337 337 336 334 336 332 328 328 329 329 327 325 325 325 322 320 321 321 319 318 315 314 312 310 310 309 309 314

GFSMA_850_thetae_042.txt.gz
Theta_e
343 345 345 344 341 343 345 344 345 344 343 343 342 340 335 342 338 342 340 336 338 337 339 339 337 331 326 333 334 330 323 327 326 330 334 336 327 330 325 326 331 330 327
343 346 346 343 342 344 345 345 345 343 342 343 340 337 333 333 341 336 334 335 334 335 336 337 338 337 338 330 332 333 327 324 325 329 332 333 329 325 325 327 326 325 325
345 345 345 346 344 345 343 344 344 342 343 341 340 339 335 334 340 339 334 334 333 334 332 334 337 337 335 336 339 338 331 330 326 325 323 326 332 330 323 323 330 327 325
345 346 345 345 346 344 343 343 343 343 342 340 337 336 329 334 332 333 335 335 334 337 337 336 336 338 336 335 334 337 339 339 333 334 330 326 326 324 322 323 335 336 333
346 347 346 347 343 343 343 343 343 342 342 340 334 331 331 332 334 333 333 335 336 337 336 338 337 337 338 338 334 333 337 339 340 336 335 335 334 331 327 324 324 324 328
346 346 347 347 344 343 342 341 343 342 343 339 332 333 334 334 334 333 336 338 339 339 337 337 339 339 339 338 338 335 333 334 338 340 340 336 333 332 332 333 335 335 333
345 346 347 346 344 343 342 343 343 342 341 335 330 332 332 334 335 337 334 337 335 336 334 333 334 338 340 336 340 340 336 336 335 337 340 340 340 339 339 337 334 333 332
345 345 344 347 345 343 341 342 344 342 340 326 332 332 334 335 335 337 338 337 332 334 331 330 325 325 335 339 338 335 332 335 335 335 337 338 338 339 339 339 340 340 338
346 344 344 344 344 342 342 344 345 343 339 329 331 332 335 334 334 337 338 334 331 331 330 328 325 323 326 327 325 324 323 324 331 334 334 334 335 337 338 337 336 336 338
344 343 344 345 346 344 341 343 343 344 337 331 331 332 334 335 336 336 336 333 332 332 331 330 328 327 327 324 322 320 320 320 319 319 319 318 317 316 317 319 325 331 336
344 343 345 346 346 345 342 343 343 343 337 324 330 330 334 336 337 337 336 335 335 332 332 332 330 329 328 328 328 327 325 323 326 327 327 326 323 322 319 317 316 316 317
344 344 346 346 347 347 342 342 341 343 338 329 330 331 332 332 335 336 337 336 335 335 334 332 332 331 329 328 329 329 328 329 329 329 328 325 324 324 324 320 319 317 317
345 345 347 348 347 347 342 341 340 340 336 333 325 328 334 332 329 331 332 334 334 332 331 331 331 332 330 330 328 328 329 329 329 330 328 325 326 325 326 326 325 324 323
345 349 345 345 346 347 343 339 338 339 336 330 321 322 330 332 332 332 332 333 333 332 331 330 330 331 331 331 330 329 328 328 329 330 328 327 327 326 325 326 328 327 327
344 348 347 344 345 347 345 338 337 331 329 328 322 320 321 327 330 331 332 332 332 331 330 329 329 330 330 330 331 330 330 328 329 330 329 328 328 328 326 326 325 326 326
342 346 346 345 346 346 346 338 337 334 325 324 323 322 321 320 321 327 332 333 332 332 331 330 329 329 329 328 329 330 329 329 331 329 328 327 327 327 327 326 324 323 324
338 344 343 346 348 347 344 336 332 334 328 322 323 324 323 323 321 321 324 327 331 332 331 330 331 331 330 330 328 329 328 328 327 328 330 328 328 328 327 326 324 321 324
338 340 340 345 348 347 344 339 329 327 328 326 323 324 325 324 324 321 322 325 326 328 328 329 330 330 329 329 330 328 325 326 326 326 328 329 330 328 327 322 322 325 325
341 338 340 343 347 347 347 345 344 342 341 340 336 328 324 325 325 325 322 324 327 327 327 327 329 330 328 328 328 325 324 326 327 327 328 328 327 326 323 322 323 323 323
348 338 339 340 347 347 348 348 348 347 346 344 342 340 335 325 326 326 327 323 326 327 327 326 324 329 330 330 329 329 328 329 327 326 326 326 325 321 320 319 317 317 317
347 348 338 340 345 348 348 348 348 349 349 347 345 344 342 336 328 327 328 329 329 328 329 325 329 330 331 331 331 331 330 329 328 327 325 321 323 323 323 319 318 318 318
347 348 348 341 340 346 347 347 348 348 349 349 349 348 346 343 336 327 329 329 334 334 333 330 328 331 331 332 330 330 330 328 328 326 325 324 324 323 321 318 318 318 319
347 348 347 348 344 339 341 343 347 348 347 349 349 347 348 345 342 337 330 330 331 336 336 335 333 332 331 330 329 329 328 328 327 326 325 325 323 320 318 320 319 317 316
346 347 348 347 348 346 342 340 344 345 345 346 347 347 348 346 344 342 336 332 331 333 335 334 333 331 331 328 328 326 326 327 325 325 325 321 320 320 318 317 317 316 313
346 347 348 348 348 347 347 347 342 344 346 348 348 349 350 347 344 343 333 334 331 336 335 333 333 334 333 331 326 326 328 326 326 324 321 319 317 316 315 316 314 311 309
347 348 348 348 348 348 348 348 347 345 347 349 351 351 349 340 342 337 332 332 337 336 335 335 334 330 328 326 328 326 325 325 321 318 317 315 315 313 311 311 309 307 310

GFSMA_850_thetae_045.txt.gz
Theta_e
344 344 345 344 342 344 345 344 345 344 342 342 341 336 332 340 338 340 338 336 337 336 339 338 335 334 328 334 331 331 325 332 331 329 335 334 329 330 328 325 326 334 327
342 345 346 343 342 344 345 345 343 342 342 343 340 337 334 333 340 333 333 334 332 334 335 338 339 337 336 329 334 336 332 324 325 329 333 334 333 327 325 325 327 325 324
344 344 344 345 344 344 344 343 343 342 344 342 338 337 337 334 342 335 334 334 335 333 333 334 336 336 335 335 337 338 332 329 326 325 328 331 333 331 328 323 326 329 325
344 345 346 345 346 346 344 343 343 342 342 338 336 336 330 335 332 333 333 334 334 339 337 336 336 337 336 335 334 334 338 339 334 332 332 327 326 327 325 322 326 334 336
347 346 347 346 345 343 343 342 343 342 341 339 335 332 331 332 334 333 333 335 336 336 338 338 337 337 338 338 335 335 334 338 340 339 333 335 334 333 330 326 324 325 325
345 345 346 345 346 344 343 342 342 342 341 341 337 332 333 333 334 332 336 339 339 340 338 338 338 340 340 338 338 338 335 333 335 339 340 339 336 330 333 333 333 334 335
345 345 344 345 347 344 343 342 343 344 342 337 329 331 333 333 333 336 335 335 335 336 333 332 334 337 338 337 339 338 334 335 336 335 338 340 340 339 338 339 338 336 333
346 344 344 343 347 345 343 343 343 344 342 332 332 333 335 336 334 337 337 336 332 333 329 326 324 324 331 337 338 334 331 333 335 334 336 337 338 339 339 339 339 339 340
347 346 344 344 345 344 344 343 344 345 343 336 330 334 336 336 337 334 336 334 331 330 329 328 324 324 327 328 325 322 321 324 330 330 329 329 329 331 334 336 337 337 336
347 346 345 342 345 345 345 342 341 343 343 334 332 330 334 335 336 338 336 335 332 332 331 330 328 328 326 324 322 321 321 320 322 323 323 323 321 319 316 316 318 320 325
348 346 344 345 344 345 346 342 342 343 343 334 330 331 333 335 336 338 338 338 334 333 332 332 330 328 329 329 328 326 323 325 328 329 328 325 323 322 322 320 317 316 316
343 341 344 344 345 346 346 344 342 342 343 336 324 329 331 336 337 338 339 338 338 337 334 333 332 331 329 329 329 329 328 329 329 330 328 325 325 324 324 325 321 319 318
342 338 343 344 346 344 346 346 340 339 341 336 332 326 329 333 329 330 334 336 337 337 335 333 331 332 331 330 329 328 329 329 329 330 330 326 326 326 324 325 327 327 324
342 339 343 345 347 347 347 348 341 339 339 337 332 322 324 331 330 330 332 335 334 334 333 332 331 330 331 332 330 329 329 328 328 329 330 329 327 326 326 325 325 326 327
343 340 343 346 345 345 347 347 341 335 336 335 334 325 321 325 329 329 327 331 334 332 332 332 332 329 330 330 331 331 330 330 329 328 330 330 328 327 327 327 326 325 324
347 340 343 347 345 345 345 347 344 335 332 330 331 327 322 322 322 325 326 328 331 333 332 332 330 328 329 329 328 329 330 330 329 329 330 328 328 327 327 326 325 325 324
347 344 339 343 346 343 344 346 346 338 332 328 325 325 324 323 323 322 321 326 328 330 333 333 330 330 330 330 329 328 328 328 328 326 326 327 329 329 328 328 328 326 322
346 347 341 340 344 344 345 347 346 340 333 331 325 323 324 325 324 324 323 321 323 325 331 330 332 330 330 329 329 329 328 325 325 326 327 326 327 329 329 328 325 323 322
346 347 347 339 340 342 342 347 346 342 333 330 328 325 323 323 325 325 325 324 323 325 326 330 332 326 329 329 328 329 327 325 327 329 328 327 327 328 328 326 323 320 318
345 346 347 345 337 339 339 346 346 344 341 336 336 337 338 336 329 325 326 326 325 324 327 327 332 331 325 328 329 329 331 331 330 329 328 328 325 324 325 322 321 321 319
344 346 345 347 341 336 338 342 346 346 346 345 344 344 343 342 341 338 327 327 328 328 329 330 333 332 330 329 330 333 331 330 329 327 326 328 327 326 327 326 324 320 318
344 345 346 345 347 340 335 336 343 346 347 347 348 348 347 345 344 343 337 329 327 330 332 335 334 333 329 329 331 332 331 329 329 329 327 328 328 328 327 326 322 319 319
343 344 346 346 345 345 342 334 338 344 347 347 348 349 349 349 348 346 344 342 332 330 331 335 336 335 333 330 333 332 330 329 330 330 327 328 328 327 324 323 320 319 317
343 343 345 346 346 345 344 344 340 338 343 347 347 348 350 350 350 349 345 342 337 332 331 335 335 335 334 333 331 331 329 327 326 327 326 326 325 324 322 320 318 317 315
344 344 344 345 346 347 346 344 346 347 341 343 346 348 349 348 348 348 344 343 339 336 333 331 335 335 334 333 333 333 329 326 327 327 326 323 321 321 319 318 316 313 309
345 346 346 346 346 346 347 347 347 348 348 346 345 345 347 348 349 345 342 343 341 338 334 333 335 333 334 332 331 329 328 329 328 323 321 319 318 318 316 314 314 311 310

GFSMA_850_thetae_048.txt.gz
Theta_e
349 352 348 351 349 350 349 348 346 348 348 348 345 343 338 343 343 344 344 335 334 336 338 338 333 335 333 334 329 332 324 329 329 328 333 334 330 328 331 326 326 334 328
350 351 347 351 350 351 352 348 349 349 346 347 343 345 340 338 345 339 340 340 332 334 336 339 338 337 334 327 335 334 331 325 325 326 331 334 335 329 325 325 326 325 325
344 346 352 351 350 351 345 348 347 347 346 341 338 343 341 342 344 335 343 340 339 333 332 335 337 337 335 336 335 335 333 331 326 325 326 330 333 332 331 324 323 329 326
344 347 352 352 352 349 344 345 345 346 341 338 339 340 339 339 339 341 341 340 337 341 335 335 337 337 336 335 334 334 337 338 333 332 330 329 326 327 328 325 323 328 334
347 346 353 352 348 351 351 346 346 345 344 341 339 337 335 337 337 336 340 341 342 339 341 338 337 337 337 337 334 335 333 336 339 339 334 333 335 334 330 328 325 323 324
346 345 352 345 346 348 349 347 344 347 344 343 335 334 337 337 337 337 340 343 343 341 340 343 343 341 339 339 338 339 334 332 334 338 340 339 339 335 330 333 333 333 334
346 346 353 345 345 349 349 346 347 344 346 343 334 335 337 338 337 339 339 338 338 339 340 341 341 343 343 339 338 338 336 335 336 335 336 339 340 340 338 338 339 338 335
346 346 344 351 345 351 344 349 344 347 345 339 334 336 337 336 337 339 340 339 339 337 336 336 339 340 341 345 339 334 332 332 335 335 334 336 338 339 339 339 339 339 339
347 347 346 344 345 346 349 348 347 344 344 342 331 339 336 337 336 337 339 339 340 337 335 337 338 339 341 339 333 324 322 327 333 334 333 331 330 329 331 333 337 337 337
350 351 348 344 344 350 351 351 349 347 344 340 336 336 339 340 336 338 338 340 339 339 337 336 337 335 328 329 324 322 319 319 320 322 324 323 322 321 319 317 317 318 321
344 350 353 351 346 345 351 347 344 342 346 341 334 337 337 338 338 338 339 338 339 339 339 337 337 336 335 332 330 325 322 324 326 328 327 325 324 322 321 322 320 318 317
352 346 352 352 348 350 351 348 346 342 343 342 334 336 336 336 337 338 337 339 339 340 338 339 338 336 337 335 331 329 328 328 329 330 330 327 326 325 323 323 324 324 322
350 350 347 347 350 344 348 345 346 343 340 341 333 334 335 336 335 334 335 337 336 338 338 337 337 337 336 337 335 330 329 329 329 329 330 330 328 327 326 325 325 326 327
349 351 351 343 342 349 344 344 347 342 339 336 333 330 335 335 336 335 334 334 335 335 335 335 336 335 336 336 336 335 331 329 329 328 328 330 330 329 327 327 326 324 324
351 352 353 342 341 344 345 346 348 343 336 332 333 330 326 335 337 336 335 334 334 334 334 337 333 335 335 336 334 331 333 334 330 329 329 328 330 330 329 327 327 327 327
349 351 353 347 343 345 347 343 349 349 339 333 334 330 326 334 336 336 335 334 334 333 333 334 334 335 334 334 333 329 330 331 330 330 330 328 327 328 329 328 328 327 327
346 346 350 341 342 346 347 344 345 352 344 334 333 331 328 326 333 336 335 335 335 335 333 333 334 334 330 330 335 331 333 333 334 331 326 326 327 326 327 329 328 329 328
346 346 346 346 339 348 349 344 343 350 349 342 334 332 328 327 325 328 336 334 335 336 334 336 335 335 332 336 337 336 334 333 332 330 327 328 327 327 326 328 329 328 328
345 346 346 346 343 337 341 342 342 343 347 347 341 332 328 326 325 333 330 336 336 333 334 334 335 336 335 337 337 332 336 334 331 331 330 329 328 328 326 326 325 326 323
343 344 346 346 345 341 336 339 345 343 346 348 347 337 332 328 325 323 325 326 328 333 335 336 335 334 336 335 336 335 336 334 334 334 333 330 328 328 327 323 322 323 323
342 343 344 345 345 345 344 336 337 339 340 346 347 341 330 328 331 335 334 329 325 326 335 337 336 335 335 335 336 334 334 334 334 335 333 332 331 332 331 329 328 328 327
342 342 343 344 345 345 344 343 334 334 335 344 346 344 343 338 340 341 341 341 337 328 326 334 336 336 336 336 335 334 334 334 335 332 333 333 331 331 330 329 328 326 324
344 342 342 343 344 345 345 344 341 335 335 336 343 345 346 347 345 345 344 343 343 343 336 334 331 337 337 338 338 337 334 334 333 333 332 332 331 330 329 326 326 324 319
343 342 342 342 343 344 345 345 344 345 338 338 341 342 346 348 348 348 348 348 348 346 341 335 334 335 335 336 335 335 333 333 332 332 332 331 330 327 325 323 322 320 319
351 356 357 355 351 350 346 345 346 346 347 344 347 343 344 346 348 347 348 349 349 348 343 340 333 332 332 335 334 335 334 333 333 332 329 329 325 322 322 321 319 318 316
355 357 358 357 357 358 357 354 352 351 350 350 349 349 345 340 342 344 348 349 349 347 343 341 335 333 331 335 334 334 333 332 332 330 327 325 320 319 319 318 316 315 314